Weather Roundup
Issued by NWS Chicago, IL

Home | Current Version | Previous Version | Text Only | Print | Product List | Glossary Off
Versions: 1 2 3 4 5 6 7 8 9 10 11 12 13 14 15 16 17 18 19 20 21 22 23 24 25 26 27 28 29 30 31 32 33 34 35 36 37 38 39 40 41 42 43 44 45 46 47 48 49 50

000
NZUS59 KLOT 192008
HRRLOT

CHICAGO AREA WEATHER ROUNDUP
NATIONAL WEATHER SERVICE CHICAGO/ROMEOVILLE IL
200 PM CST SUN NOV 19 2017

NOTE: "FAIR" INDICATES FEW OR NO CLOUDS BELOW 12,000 FEET WITH NO
SIGNIFICANT WEATHER AND/OR OBSTRUCTIONS TO VISIBILITY.

* THESE STATIONS ARE NOT UNDER NWS QUALITY CONTROL. THEY ALSO MAY NOT
  REPORT WEATHER SUCH AS PRECIPITATION OR FOG.

ILZ005-006-012>014-019>023-192100-
NORTHEAST ILLINOIS

CITY           SKY/WX    TMP DP  RH WIND       PRES   REMARKS
OHARE          MOSUNNY   35  16  45 NW15      30.03S WCI  25
MIDWAY         MOSUNNY   35  18  49 W14G21    30.04S WCI  26
AURORA         MOSUNNY   34  20  56 W16       30.06S WCI  24
LANSING*       SUNNY     35  21  58 W13G20    30.05S WCI  26
JOLIET*        MOSUNNY   35  20  54 W8        30.08R WCI  28
WAUKEGAN       SUNNY     33  14  45 W8G20     30.00F WCI  26
DUPAGE AIRPORT SUNNY     33  18  53 W15       30.04S WCI  23
WHEELING       SUNNY     36  16  44 W14       30.03F
KANKAKEE*      SUNNY     34  22  60 W18       30.09S WCI  23
MORRIS*        MOSUNNY   33  20  59 W15G23    30.07S WCI  23
LEWIS AIRPORT* MOSUNNY   34  21  59 W16       30.06S WCI  23
NORTHERLY ISL    N/A     34  16  48 W15         N/A  WCI  24
$$

WIZ051-052-058>065-066-070>072-192100-
SOUTHEAST WISCONSIN

CITY           SKY/WX    TMP DP  RH WIND       PRES   REMARKS
MILWAUKEE      MOSUNNY   34  12  40 W16G22    29.99F WCI  24
KENOSHA*       SUNNY     32  15  49 W14       30.01S WCI  22
RACINE*        SUNNY     34  14  43 W10G18    30.01F WCI  26
BURLINGTON     SUNNY     35  19  52 W13       30.01F WCI  26
WAUKESHA       SUNNY     30  12  47 W14       29.99F WCI  20
WEST BEND      SUNNY     32  12  43 W9        29.96F WCI  24
$$

INZ001>003-010>013-019-020-192100-
NORTHWEST INDIANA

CITY           SKY/WX    TMP DP  RH WIND       PRES   REMARKS
GARY*          MOSUNNY   36  16  44 W12G23    30.05
MICHIGAN CITY* NOT AVBL
RENSSELAER*    NOT AVBL
VALPARAISO     SUNNY     36  21  54 W14       30.03F
$$

LMZ740>746-192100-
SOUTHERN LAKE MICHIGAN

STATION/POSITION TIME  SKY/WX   TEMP WIND        PRES    VSBY
                                AIR  DIR/SP/G
                 (UTC)          (F)  (DEG/KT/KT) (MB)    (MI)
HARRISON CRIB    1940            34  280/ 14/ 16   N/A
BURNHAM HARBOR   2000            35  260/ 13/ 15   N/A
CALUMET HARBOR   1942            35  260/  8/ 15 1016.6R
BURNS HARBOR     1940            34  290/ 14/ 19 1017.3F
MICHIGAN CITY    1940            33  260/ 17/ 19   N/A
$$

ABBREVIATIONS USED IN REMARKS
   TC - TEMPERATURE IN CELSIUS
  WCI - WIND CHILL INDEX
   HX - HEAT INDEX
  VSB - VISIBILITY
$$



USA.gov is the U.S. government's official web portal to all federal, state and local government web resources and services.